IUS DEB, 26078

Orbit data source: Space-Track

IUS DEB, 26078 is space debris originally from a launch on Fri, 23 Jul 1999 UTC launched from the Air Force Eastern Test Range (AFETR). Debris objects in space refer to the collection of defunct objects orbiting the Earth. Examples of debris include non-operational satellites, rocket bodies, and fragments generated from explosions, collisions, or faulty payload assembly.

Loading next visibility...
Identifier
26078, 1999-040F
Orbit
Active
Country
Flag of USUS
Related business
Manufacturer
Boeing/Kent
Mission
Spacecraft
Bus & Motor
Unknown
Mass
Unknown
Launch date (UTC)
1999-07-23 (26 years ago)
Launch vehicle
Unknown
Launch site
Air Force Eastern Test Range (AFETR)
Object type
Payload
Rocket body
Debris
Shape & HBR
Unknown shape, 0.1 m
Radar Cross Section
Small (<0.1 m²)

Expand to show TLE details & history
Last TLE update: 8 months ago

TLE from 8 months ago
0 IUS DEB
1 26078U 99040F   25056.87963623  .00008656  00000-0  20332-2 0  9994
2 26078  28.3946 251.8912 4386130 170.9622 200.7601  6.61930195461723
Epoch: 2025-02-25T21:06Z
TLE epoch observation values (Epoch: 2025-02-25T21:06:40.570Z)
Latitude
0.00003°
Longitude
139.24502°
Altitude
10,690.445 km
Speed
3.667 km/s
True Right ascension
16h 47m 33s
True Declination
0° 00' 00"
Sunlit
Object was in daylight at epoch
Visualization orbit readout
Latitude
Unknown
Longitude
Unknown
Altitude
Unknown
Speed
Unknown
Apparent Right ascension
Unknown
Apparent Declination
Unknown
Sunlit
N/A
Visualization observer readout
Local Sidereal Time
13:23:08
Azimuth
Unknown
Elevation
Unknown
Doppler factor
Unknown
Orbital elements
Apogee altitude
10,864.06 km
Perigee altitude
350.25 km
Semi-major axis
11,985.292 km
Eccentricity
0.43861
Inclination
28.3946°
RAAN
251.8912°
Arg. of periapsis
170.9622°
True anomaly
189.07323°
Mean anomaly
200.7601°
Eccentric anomaly
194.47746°
Mean motion
1.65413 °/min
Orbital period
217.64 mins
BSTAR
0.0020332
Loading maneuver chart data...
Computing Atmospheric mass density...
Loading historical data...
Loading historical data...
Loading historical data...
Loading historical data...
Loading historical data...
Loading historical data...
Loading historical data...

Documentation

Showing up to 5 results
|